Retour au catalogue

FENGYUN 1C DEB

ActifSSO
NORAD 31721·DEBRIS·🇨🇳 China

Lancé May 10, 1999 depuis Taiyuan Satellite Launch Center

Loading…

Prochains Passages (prochaines 24 heures)

TLE

FraisSource: Space-Track

Époque: Sep 14, 2026, 05:00 UTC

1 31721U 99025CDU 26257.20883196  .00000274  00000-0  23803-3 0  9990
2 31721  99.8064 249.0446 0316336 191.9582 232.9998 13.74122308711695

Suivez FENGYUN 1C DEB en temps réel avec AllMySat

Download on the App Store